Weather History for KCLS - January, 2014

Change the Weather History Date:

Sunday, January 26, 2014

  Actual Average (KOLM) Record (KOLM)
Temperature  
Mean Temperature 38 °F 40 °F  
Max Temperature 48 °F 47 °F 63 °F (2015)
Min Temperature 28 °F 34 °F 0 °F (1957)
Degree Days  
Heating Degree Days 27 25  
Month to date heating degree days 660  
Since 1 July heating degree days 2930  
Cooling Degree Days 0 0  
Month to date cooling degree days 0  
Year to date cooling degree days 0  
Moisture  
Dew Point 33 °F    
Average Humidity 96    
Maximum Humidity 100    
Minimum Humidity 71    
Precipitation  
Precipitation 0.00 in 0.24 in 2.08 in (1970)
Month to date precipitation 6.68  
Year to date precipitation 6.68  
Sea Level Pressure  
Sea Level Pressure 30.19 in    
Wind  
Wind Speed 1 mph (NNE)    
Max Wind Speed 7 mph    
Max Gust Speed -    
Visibility 3 miles    
Events Fog    
T = Trace of Precipitation, MM = Missing Value Source: NWS Daily Summary

Daily Weather History Graph

Daily Weather History Graph

Search for Another Location

Airport or City:

Trip Planner

Search our weather history database for the weather conditions in past years. The results will help you decide how hot, cold, wet, or windy it might be!

Date:

Astronomy

Jan. 26, 2014 Rise Set
Actual Time 7:42 AM PST 5:06 PM PST
Civil Twilight 7:09 AM PST 5:39 PM PST
Nautical Twilight 6:33 AM PST 6:16 PM PST
Astronomical Twilight 5:57 AM PST 6:52 PM PST
Moon 3:27 AM PST (1/26) 12:59 PM PST (1/26)
Length of Visible Light 10h 29m
Length of Day
9h 24m
Waning Crescent, 23% of the Moon is Illuminated
Jan 26
Waning Crescent
Jan 30
New
Feb 6
First Quarter
Feb 14
Full
Feb 22
Last Quarter

Hourly Weather History & Observations

Time (PST) Temp. Windchill Dew Point Humidity Pressure Visibility Wind Dir Wind Speed Gust Speed Precip Events Conditions
12:15 AM 32.0 °F - 32.0 °F 100% 30.28 in 0.5 mi Calm Calm - N/A Fog Light Freezing Fog
12:35 AM 32.0 °F - 32.0 °F 100% 30.28 in 0.5 mi Calm Calm - N/A Fog Light Freezing Fog
12:55 AM 32.0 °F - 32.0 °F 100% 30.28 in 0.2 mi Calm Calm - N/A Fog Light Freezing Fog
1:15 AM 32.0 °F - 32.0 °F 100% 30.28 in 0.2 mi Calm Calm - N/A Fog Light Freezing Fog
1:35 AM 32.0 °F - 32.0 °F 100% 30.27 in 0.5 mi Calm Calm - N/A Fog Light Freezing Fog
1:55 AM 30.2 °F - 30.2 °F 100% 30.27 in 0.5 mi Calm Calm - N/A Fog Light Freezing Fog
2:15 AM 30.2 °F - 30.2 °F 100% 30.27 in 0.5 mi Calm Calm - N/A Fog Light Freezing Fog
2:35 AM 30.2 °F - 30.2 °F 100% 30.27 in 1.0 mi Calm Calm - N/A   Overcast
2:55 AM 30.2 °F - 30.2 °F 100% 30.27 in 1.2 mi Calm Calm - N/A   Overcast
3:15 AM 30.2 °F - 30.2 °F 100% 30.27 in 0.5 mi Calm Calm - N/A Fog Light Freezing Fog
3:35 AM 30.2 °F - 30.2 °F 100% 30.26 in 0.5 mi Calm Calm - N/A Fog Light Freezing Fog
3:55 AM 30.2 °F 26.7 °F 30.2 °F 100% 30.26 in 0.5 mi SSW 3.5 mph - N/A Fog Light Freezing Fog
4:15 AM 30.2 °F 26.7 °F 30.2 °F 100% 30.25 in 0.5 mi WSW 3.5 mph - N/A Fog Light Freezing Fog
4:35 AM 30.2 °F 26.7 °F 30.2 °F 100% 30.26 in 0.5 mi SW 3.5 mph - N/A Fog Light Freezing Fog
4:55 AM 30.2 °F - 30.2 °F 100% 30.25 in 0.8 mi Calm Calm - N/A   Overcast
5:15 AM 30.2 °F - 30.2 °F 100% 30.25 in 8.0 mi Calm Calm - N/A   Overcast
5:35 AM 28.4 °F - 28.4 °F 100% 30.25 in 5.0 mi Calm Calm - N/A   Overcast
5:55 AM 28.4 °F - 28.4 °F 100% 30.24 in 0.5 mi Calm Calm - N/A Fog Light Freezing Fog
6:15 AM 28.4 °F - 28.4 °F 100% 30.24 in 0.5 mi Calm Calm - N/A Fog Light Freezing Fog
6:35 AM 28.4 °F - 28.4 °F 100% 30.25 in 1.0 mi Calm Calm - N/A   Overcast
6:55 AM 28.4 °F - 28.4 °F 100% 30.24 in 0.5 mi Calm Calm - N/A Fog Light Freezing Fog
7:15 AM 28.4 °F - 28.4 °F 100% 30.24 in 0.2 mi Calm Calm - N/A Fog Light Freezing Fog
7:35 AM 28.4 °F - 28.4 °F 100% 30.24 in 0.2 mi Calm Calm - N/A Fog Light Freezing Fog
7:55 AM 28.4 °F - 28.4 °F 100% 30.24 in 0.2 mi Calm Calm - N/A Fog Light Freezing Fog
8:15 AM 28.4 °F - 28.4 °F 100% 30.24 in 0.2 mi Calm Calm - N/A Fog Light Freezing Fog
8:35 AM 28.4 °F - 28.4 °F 100% 30.23 in 0.2 mi Calm Calm - N/A Fog Light Freezing Fog
8:55 AM 28.4 °F 24.6 °F 28.4 °F 100% 30.23 in 0.2 mi ENE 3.5 mph - N/A Fog Light Freezing Fog
9:15 AM 30.2 °F 25.4 °F 30.2 °F 100% 30.22 in 0.2 mi NE 4.6 mph - N/A Fog Light Freezing Fog
9:35 AM 32.0 °F 28.7 °F 32.0 °F 100% 30.22 in 0.2 mi North 3.5 mph - N/A Fog Light Freezing Fog
9:55 AM 32.0 °F 28.7 °F 32.0 °F 100% 30.22 in 0.2 mi NE 3.5 mph - N/A Fog Light Freezing Fog
10:15 AM 32.0 °F - 32.0 °F 100% 30.22 in 0.2 mi Calm Calm - N/A Fog Fog
10:35 AM 32.0 °F - 32.0 °F 100% 30.21 in 0.2 mi Calm Calm - N/A Fog Fog
10:55 AM 32.0 °F - 32.0 °F 100% 30.21 in 0.2 mi Calm Calm - N/A Fog Fog
11:15 AM 33.8 °F 30.8 °F 33.8 °F 100% 30.20 in 0.2 mi NNE 3.5 mph - N/A Fog Fog
11:35 AM 35.6 °F 31.7 °F 35.6 °F 100% 30.20 in 0.2 mi NNE 4.6 mph - N/A Fog Fog
11:55 AM 35.6 °F 29.9 °F 35.6 °F 100% 30.19 in 0.8 mi NNE 6.9 mph - N/A   Overcast
12:15 PM 37.4 °F 32.8 °F 37.4 °F 100% 30.18 in 2.0 mi NE 5.8 mph - N/A   Overcast
12:35 PM 37.4 °F 33.8 °F 37.4 °F 100% 30.18 in 3.0 mi NNE 4.6 mph - N/A   Mostly Cloudy
12:55 PM 39.2 °F 35.0 °F 39.2 °F 100% 30.17 in 7.0 mi NNE 5.8 mph - N/A   Partly Cloudy
1:15 PM 41.0 °F - 41.0 °F 100% 30.16 in 10.0 mi Calm Calm - N/A   Clear
1:35 PM 44.6 °F 43.1 °F 39.2 °F 81% 30.16 in 10.0 mi NNE 3.5 mph - N/A   Clear
1:55 PM 44.6 °F 42.2 °F 39.2 °F 81% 30.15 in 10.0 mi NE 4.6 mph - N/A   Clear
2:15 PM 46.4 °F 44.3 °F 41.0 °F 81% 30.14 in 10.0 mi NNE 4.6 mph - N/A   Clear
2:35 PM 48.2 °F - 41.0 °F 76% 30.13 in 5.0 mi Calm Calm - N/A   Haze
2:55 PM 48.2 °F - 39.2 °F 71% 30.12 in 5.0 mi NNE 4.6 mph - N/A   Haze
3:15 PM 48.2 °F - 39.2 °F 71% 30.12 in 10.0 mi NE 6.9 mph - N/A   Clear
3:35 PM 46.4 °F 44.3 °F 39.2 °F 76% 30.12 in 10.0 mi North 4.6 mph - N/A   Clear
3:55 PM 46.4 °F 45.2 °F 39.2 °F 76% 30.11 in 10.0 mi North 3.5 mph - N/A   Clear
4:15 PM 46.4 °F 45.2 °F 39.2 °F 76% 30.11 in 10.0 mi North 3.5 mph - N/A   Clear
4:35 PM 44.6 °F - 39.2 °F 81% 30.11 in 10.0 mi Calm Calm - N/A   Clear
4:55 PM 42.8 °F - 39.2 °F 87% 30.11 in 5.0 mi Calm Calm - N/A   Clear
5:15 PM 41.0 °F 37.1 °F 37.4 °F 87% 30.12 in 10.0 mi North 5.8 mph - N/A   Clear
5:35 PM 39.2 °F - 37.4 °F 93% 30.12 in 9.0 mi Calm Calm - N/A   Clear
5:55 PM 39.2 °F 35.0 °F 37.4 °F 93% 30.12 in 5.0 mi NNE 5.8 mph - N/A   Clear
6:15 PM 37.4 °F 34.9 °F 35.6 °F 93% 30.12 in 7.0 mi NE 3.5 mph - N/A   Clear
6:35 PM 37.4 °F 33.8 °F 35.6 °F 93% 30.12 in 5.0 mi NE 4.6 mph - N/A   Clear
6:55 PM 35.6 °F 31.7 °F 35.6 °F 100% 30.12 in 5.0 mi ENE 4.6 mph - N/A   Clear
7:15 PM 35.6 °F - 35.6 °F 100% 30.11 in 5.0 mi Calm Calm - N/A   Clear
7:35 PM 33.8 °F - 33.8 °F 100% 30.12 in 4.0 mi Calm Calm - N/A   Clear
7:55 PM 32.0 °F - 32.0 °F 100% 30.12 in 4.0 mi Calm Calm - N/A   Clear
8:15 PM 32.0 °F 26.4 °F 32.0 °F 100% 30.12 in 1.0 mi NNE 5.8 mph - N/A   Mostly Cloudy
8:35 PM 32.0 °F 28.7 °F 32.0 °F 100% 30.13 in 0.2 mi NE 3.5 mph - N/A Fog Fog
8:55 PM 32.0 °F 26.4 °F 32.0 °F 100% 30.12 in 0.2 mi NE 5.8 mph - N/A   Overcast
9:15 PM 32.0 °F 28.7 °F 32.0 °F 100% 30.12 in 0.2 mi North 3.5 mph - N/A Fog Fog
9:35 PM 32.0 °F 28.7 °F 32.0 °F 100% 30.12 in 0.2 mi North 3.5 mph - N/A Fog Fog
9:55 PM 32.0 °F - 32.0 °F 100% 30.13 in 0.2 mi Calm Calm - N/A Fog Fog
10:15 PM 32.0 °F 28.7 °F 32.0 °F 100% 30.13 in 0.2 mi NNE 3.5 mph - N/A Fog Fog
10:35 PM 32.0 °F 28.7 °F 32.0 °F 100% 30.13 in 0.2 mi NNE 3.5 mph - N/A   Overcast
10:55 PM 32.0 °F - 32.0 °F 100% 30.14 in 0.2 mi Calm Calm - N/A Fog Fog
11:15 PM 32.0 °F - 32.0 °F 100% 30.14 in 0.2 mi Calm Calm - N/A Fog Fog
11:35 PM 32.0 °F 27.5 °F 32.0 °F 100% 30.13 in 0.2 mi SSW 4.6 mph - N/A Fog Fog
11:55 PM 32.0 °F - 32.0 °F 100% 30.14 in 0.2 mi Calm Calm - N/A Fog Fog